WESTMAR Weather Reports


time (UTC)temp
F
wind
direction
speed
knots
gust
knots
rain 1hr
in
rain 24hr
in
rain mn
in
humidity
%
barometer
mb
20260504231543 86 0 1.7 6.1 0.00 0.00 0.00 40 1005.8
20260504230046 87 101 0.9 3.5 0.00 0.00 0.00 40 1006.0
20260504224545 87 0 0.0 2.6 0.00 0.00 0.00 39 1006.1
20260504223102 86 188 0.0 4.3 0.00 0.00 0.00 37 1006.2
20260504221548 86 155 0.0 3.5 0.00 0.00 0.00 37 1006.4
20260504220048 86 0 0.0 3.5 0.00 0.00 0.00 36 1006.5
20260504214546 86 0 0.0 3.5 0.00 0.00 0.00 37 1006.6
20260504213055 85 0 0.0 3.5 0.00 0.00 0.00 37 1006.7
20260504211613 85 0 0.0 5.2 0.00 0.00 0.00 36 1006.9
20260504210053 85 0 0.0 6.1 0.00 0.00 0.00 37 1006.9
20260504204546 84 0 0.0 2.6 0.00 0.00 0.00 37 1007.2
20260504203046 83 200 0.0 5.2 0.00 0.00 0.00 38 1007.3
20260504201549 82 195 1.7 7.8 0.00 0.00 0.00 40 1007.3
20260504200053 81 0 0.9 2.6 0.00 0.00 0.00 43 1007.3
20260504194551 81 0 0.0 5.2 0.00 0.00 0.00 45 1007.4
20260504193047 80 0 0.0 1.7 0.00 0.00 0.00 46 1007.6
20260504191606 80 0 0.0 5.2 0.00 0.00 0.00 46 1007.5
20260504190054 79 0 0.0 1.7 0.00 0.00 0.00 49 1007.7
20260504184552 78 187 0.9 3.5 0.00 0.00 0.00 51 1007.8
20260504183052 78 0 0.0 1.7 0.00 0.00 0.00 51 1007.9
20260504181558 77 138 0.9 3.5 0.00 0.00 0.00 52 1007.8
20260504180053 76 0 0.0 3.5 0.00 0.00 0.00 53 1007.9
20260504174545 75 0 0.0 4.3 0.00 0.00 0.00 55 1007.8
20260504173050 74 0 0.0 2.6 0.00 0.00 0.00 54 1007.7
20260504171546 74 0 0.0 0.0 0.00 0.00 0.00 54 1007.7
20260504081550 53 0 0.0 0.9 0.00 0.00 0.00 76 1006.7
20260504044549 65 0 0.0 2.6 0.00 0.00 0.00 56 1007.0
20260504043051 65 123 0.0 4.3 0.00 0.00 0.00 57 1007.0
20260504041548 64 0 0.0 0.0 0.00 0.00 0.00 62 1007.1
20260504040131 63 0 0.0 0.0 0.00 0.00 0.00 69 1007.0
20260504034548 64 0 0.0 0.0 0.00 0.00 0.00 69 1007.0
20260504033049 66 0 0.0 0.0 0.00 0.00 0.00 69 1007.0
20260504031556 68 0 0.0 0.0 0.00 0.00 0.00 65 1007.0
20260504030049 71 0 0.0 0.0 0.00 0.00 0.00 60 1007.0
20260504024551 75 0 0.0 0.0 0.00 0.00 0.00 52 1007.0
20260504023046 76 0 0.0 0.0 0.00 0.00 0.00 45 1007.0
20260504021542 78 0 0.0 0.0 0.00 0.00 0.00 43 1007.0
20260504020106 80 0 0.0 0.0 0.00 0.00 0.00 39 1007.1
20260504014554 81 0 0.0 0.0 0.00 0.00 0.00 38 1007.1
20260504013048 82 0 0.0 0.0 0.00 0.00 0.00 37 1007.2
20260504011545 84 0 0.0 1.7 0.00 0.00 0.00 37 1007.3
20260504010050 85 0 0.0 2.6 0.00 0.00 0.00 35 1007.4
20260504004542 86 0 0.0 1.7 0.00 0.00 0.00 34 1007.7
20260504003051 85 0 0.0 2.6 0.00 0.00 0.00 35 1008.1
20260504001553 86 0 0.0 0.9 0.00 0.00 0.00 36 1008.4
20260504000051 86 0 0.0 0.9 0.00 0.00 0.00 35 1008.4
20260503234620 87 0 0.0 1.7 0.00 0.00 0.00 36 1008.5
20260503233050 87 0 0.0 0.9 0.00 0.00 0.00 36 1008.6